Location: Poughquag
(41.6090°N, 73.6820°W)
Time: 10:42:54
(UTC-04:00)

Vanguard 1 Rocket - Visible Passes

Search period start: 09 August 2020 00:00
Search period end: 19 August 2020 00:00
Orbit: 655 x 4222 km, 34.3° (Epoch: 08 August)

Date Brightness Start Highest point End Pass type
(mag) Time Alt. Az. Time Alt. Az. Time Alt. Az.
09 Aug 10.0 05:25:15 10° S 05:30:22 15° SSE 05:34:16 10° SE visible
10 Aug 10.5 04:16:09 10° SSE 04:18:45 11° SSE 04:21:02 10° SE visible
11 Aug 9.7 05:25:57 10° SSW 05:33:32 22° SSE 05:38:37 10° ESE visible
12 Aug 10.2 04:14:36 10° S 04:21:54 17° SSE 04:27:09 10° ESE visible
13 Aug 10.7 03:06:56 11° SSE 03:09:53 12° SSE 03:13:52 10° SE visible
13 Aug 9.4 05:27:18 10° SW 05:36:40 29° SSE 05:42:25 10° ESE visible
14 Aug 10.0 04:16:58 13° SSW 04:25:02 24° SSE 04:31:30 10° ESE visible
15 Aug 10.4 03:09:42 17° S 03:12:59 18° SSE 03:19:42 10° ESE visible
15 Aug 9.2 05:29:02 10° SW 05:39:47 36° SSE 05:45:58 10° ESE visible
16 Aug 10.8 02:02:24 12° SE 02:02:24 12° SE 02:05:46 10° SE visible
16 Aug 9.7 04:19:40 17° SSW 04:28:08 31° SSE 04:35:19 10° ESE visible
17 Aug 10.2 03:12:19 23° S 03:16:02 25° SSE 03:24:06 10° ESE visible
17 Aug 9.1 05:31:02 10° SW 05:42:52 43° S 05:49:22 10° E visible
18 Aug 10.6 02:04:56 19° SE 02:04:56 19° SE 02:11:46 10° ESE visible
18 Aug 9.5 04:22:12 20° SW 04:31:11 38° SSE 04:38:52 10° E visible
